www.pogodaiklimat.ru

Погода и климат >> Архив погоды >> Норвегия >> Маяк Fruholmen


ПОГОДА на Маяке Fruholmen

  • Прогноз погоды на Маяке Fruholmen
  • Монитор погоды на Маяке Fruholmen

АРХИВ ПОГОДЫ на Маяке Fruholmen

Время (UTC), дата Ветер
(напр.,м/с)
 
Видим.   Явления Облачность Т
(С)
Тd
(С)
f
(%)
Тe
(С)
Тes
(С)
Комфортность P
(гПа)
Po
(гПа)
Тmin
(С)
Tmax
(С)
R
(мм)
R24
(мм)
S
(см)
04 9.01 Ю 8-9
{9}
н/о н/о +1.3 -0.2 90 -6 -6 1009.0 1007.2
05 9.01 Ю 6-7
{10}
н/о н/о +1.4 -0.3 88 -5 -5 1009.5 1007.7
06 9.01 Ю 6-8
{10}
н/о н/о +1.5 -0.3 88 -5 -5 1009.6 1007.8 +0.6 +2.9
07 9.01 Ю 6-9
{9}
н/о н/о +1.6 -0.6 85 -5 -5 1009.7 1007.9
08 9.01 Ю 6-9
{9}
н/о н/о +1.5 -0.5 87 -5 -5 1010.0 1008.2
09 9.01 Ю 6-9
{9}
н/о н/о +1.9 -0.3 85 -4 -4 1010.1 1008.3
10 9.01 Ю 5-7
{8}
н/о н/о +2.0 -0.2 85 -4 -4 1009.9 1008.1
11 9.01 Ю 8-11
{11}
н/о н/о +2.0 +0.2 88 -5 -5 1009.5 1007.7
12 9.01 Ю 8-9
{13}
н/о н/о +0.7 +0.2 96 -7 -7 1009.2 1007.4
13 9.01 Ю 10-13
{16}
н/о н/о +1.6 +0.9 95 -6 -6 1008.5 1006.7
14 9.01 ЮЗ 6-9
{14}
н/о н/о +0.8 +0.5 98 -6 -6 1008.6 1006.8
15 9.01 З 12-14
{14}
н/о н/о +2.4 -0.3 82 -5 -5 1008.6 1006.8
16 9.01 З 15-19
{19}
н/о н/о +1.7 +0.3 90 -7 -7 1008.3 1006.5
17 9.01 ЮЗ 11-16
{16}
н/о н/о +2.1 -1.2 79 -6 -6 1008.3 1006.5
18 9.01 З 12-14
{19}
н/о н/о +2.1 -1.7 76 -6 -6 1008.0 1006.2 +0.3 +2.9
19 9.01 ЮЗ 12-14
{20}
н/о н/о +1.4 -3.1 72 -7 -7 1007.9 1006.1
20 9.01 ЮЗ 9-12
{18}
н/о н/о +1.7 -2.9 71 -5 -5 1007.7 1005.9
21 9.01 ЮЗ 7-10
{16}
н/о н/о +0.9 -3.2 74 -6 -6 1007.4 1005.6
22 9.01 ЮЗ 6-9
{16}
н/о н/о +0.1 -1.0 92 -7 -7 1006.4 1004.6
23 9.01 Ю 11-17
{17}
н/о н/о +1.1 -1.8 81 -7 -7 1004.9 1003.1
00 10.01 Ю 12-15
{20}
н/о н/о +1.5 -3.9 67 -6 -6 1003.3 1001.5
01 10.01 Ю 8-12
{16}
н/о н/о +1.1 -4.6 66 -6 -6 1001.9 1000.1
02 10.01 Ю 9-13
{15}
н/о н/о +1.2 -5.4 61 -6 -6 1000.4 998.6
03 10.01 Ю 8-11
{13}
н/о н/о +1.1 -5.2 63 -6 -6 998.2 996.4
04 10.01 ЮВ 8-10
{11}
н/о н/о +0.9 -4.1 69 -6 -6 995.6 993.8
05 10.01 ЮВ 12-15
{15}
н/о н/о -0.6 -4.2 77 -9 -9 992.3 990.5
06 10.01 ЮВ 13-16
{16}
н/о н/о -1.0 -2.0 93 -11 -11 988.7 986.9 -1.2 +2.3
07 10.01 ЮВ 15-19
{20}
н/о н/о -0.8 -1.2 97 -11 -11 985.7 983.9
08 10.01 ЮВ 14-16
{19}
н/о н/о -0.4 -0.5 99 -10 -10 982.5 980.8
09 10.01 ЮВ 15-18
{18}
н/о н/о -0.2 -0.3 99 -10 -10 979.6 977.9
10 10.01 ЮВ 14-17
{20}
н/о н/о -0.1 -0.1 100 -10 -10 977.0 975.3
11 10.01 ЮВ 9-16
{16}
н/о н/о +1.8 +1.7 99 -6 -6 974.4 972.7
12 10.01 Ю 10-15
{20}
н/о н/о +3.6 +2.5 93 -4 -4 972.2 970.5
13 10.01 Ю 12-20
{20}
н/о н/о +3.9 +1.7 86 -4 -4 970.0 968.3
14 10.01 ЮВ 12-15
{19}
н/о н/о +2.4 +0.9 90 -6 -6 968.2 966.5
15 10.01 Ю 11-16
{17}
н/о н/о +2.3 +1.3 93 -6 -6 967.8 966.1
16 10.01 Ю 9-13
{17}
н/о н/о +2.6 +1.5 92 -5 -5 966.9 965.2
17 10.01 ЮЗ 17-24
{26}
н/о н/о +1.8 +0.4 90 -8 -8 966.5 964.8
18 10.01 ЮЗ 16-24
{27}
н/о н/о +1.2 -0.5 88 -8 -8 965.5 963.8 -1.1 +4.3
19 10.01 ЮЗ 15-21
{27}
н/о н/о +1.5 -0.6 86 -8 -8 964.4 962.7
20 10.01 ЮЗ 16-26
{26}
н/о н/о +0.9 -1.7 83 -8 -8 963.0 961.3
21 10.01 ЮЗ 14-19
{27}
н/о н/о +1.8 -1.5 79 -7 -7 963.4 961.7
22 10.01 Ю 15 н/о н/о +0.3 -0.3 96 -9 -9 963.0 961.3
23 10.01 Ю 11 н/о н/о -0.2 -0.5 98 -9 -9 962.2 960.5
00 11.01 Ю 9-14
{29}
н/о н/о +0.6 -1.9 83 -7 -7 961.3 959.6
01 11.01 ЮВ 9-11
{13}
н/о н/о +0.7 -1.8 83 -7 -7 960.3 958.6
02 11.01 ЮВ 9-11
{11}
н/о н/о +0.6 -2.9 77 -7 -7 959.9 958.2
03 11.01 Ю 5-8
{11}
н/о н/о +1.3 -2.5 76 -4 -4 959.8 958.1
04 11.01 ЮВ 5-6
{6}
н/о н/о +1.1 -2.0 80 -5 -5 960.0 958.3
05 11.01 ЮВ 2-3
{6}
н/о н/о +0.9 -2.4 79 -2 -2 960.7 959.0
06 11.01 С 3-5
{13}
н/о н/о +1.9 -1.9 76 -2 -2 961.7 960.0 -0.5 +2.5
07 11.01 -10
{10}
н/о н/о +2.8 -2.6 68 962.8 961.1
08 11.01 СЗ 13-14
{14}
н/о н/о +2.2 -0.8 81 -6 -6 964.2 962.5
09 11.01 СЗ 9-11
{14}
н/о н/о +2.8 -1.4 74 -4 -4 965.5 963.8
10 11.01 СЗ 8-10
{11}
н/о н/о +2.9 -2.2 69 -3 -3 966.1 964.4
11 11.01 З 12-15
{16}
н/о н/о +2.3 -0.6 81 -6 -6 965.7 964.0
12 11.01 СЗ 17-21
{21}
н/о н/о +3.1 +0.2 81 -6 -6 966.8 965.1
13 11.01 СЗ 19-23
{23}
н/о н/о +2.2 +0.3 87 -7 -7 967.8 966.1
14 11.01 СЗ 22-28
{28}
н/о н/о +2.2 +0.7 90 -8 -8 968.7 967.0
15 11.01 СЗ 25-31
{31}
н/о н/о +1.7 +0.3 90 -9 -9 969.4 967.7
16 11.01 СЗ 26-31
{32}
н/о н/о +2.0 +0.5 90 -9 -9 970.1 968.4
17 11.01 З 27-33
{33}
н/о н/о +1.8 +0.9 94 -9 -9 969.8 968.1
18 11.01 З 26-33
{33}
н/о н/о +1.7 +1.0 95 -9 -9 970.0 968.3 +0.8 +3.3
19 11.01 СЗ 27-33
{34}
н/о н/о +1.6 -16.3 25 -8 -8 970.6 968.9
20 11.01 СЗ 26-32
{35}
н/о н/о +1.6 -14.7 29 -8 -8 972.2 970.5
21 11.01 СЗ 24-30
{32}
н/о н/о +1.5 -13.4 32 -8 -8 973.3 971.6
22 11.01 СЗ 19-26
{28}
н/о н/о +2.1 -11.6 35 -6 -6 974.2 972.5
23 11.01 СЗ 17-21
{22}
н/о н/о +2.4 -10.2 39 -6 -6 974.0 972.3
00 12.01 СЗ 19-22
{35}
н/о н/о +3.1 -8.4 43 -5 -5 974.8 973.1
01 12.01 СЗ 21-25
{27}
н/о н/о +2.7 -7.7 46 -6 -6 975.5 973.8
02 12.01 СЗ 21-25
{27}
н/о н/о +2.2 -7.2 50 -7 -7 976.2 974.5
03 12.01 СЗ 18-22
{26}
н/о н/о +1.4 -7.0 54 -8 -8 977.4 975.7
04 12.01 СЗ 17-20
{23}
н/о н/о +2.0 -5.7 57 -7 -7 977.7 976.0
05 12.01 СЗ 16-21
{21}
н/о н/о +1.7 -5.1 61 -7 -7 978.1 976.4
06 12.01 С 16-20
{27}
н/о н/о +1.0 -5.0 64 -8 -8 979.2 977.5 +1.0 +3.4
07 12.01 С 15-19
{21}
н/о н/о +2.7 -2.8 67 -5 -5 979.7 978.0
08 12.01 С 12-15
{20}
н/о н/о +2.1 -2.8 70 -6 -6 980.7 979.0
09 12.01 С 13-16
{18}
н/о н/о +2.5 -1.7 74 -5 -5 981.1 979.4
10 12.01 СЗ 13-19
{19}
н/о н/о +2.0 -1.6 77 -6 -6 981.5 979.8
11 12.01 СЗ 12-15
{20}
н/о н/о +1.9 -1.2 80 -6 -6 981.8 980.1
12 12.01 СЗ 13-16
{21}
н/о н/о +1.3 -1.2 83 -7 -7 981.9 980.2
13 12.01 СЗ 13-16
{17}
н/о н/о +2.1 +0.1 87 -6 -6 981.8 980.1
14 12.01 СЗ 13-15
{17}
н/о н/о +2.1 +0.6 90 -6 -6 981.9 980.2
15 12.01 СЗ 15-20
{20}
н/о н/о +1.0 0.0 93 -8 -8 982.0 980.3
16 12.01 СЗ 14-17
{17}
н/о н/о +1.9 +1.3 96 -7 -7 981.6 979.9
17 12.01 СЗ 12-14
{16}
н/о н/о +2.1 +1.8 98 -6 -6 981.4 979.7
18 12.01 СЗ 12-15
{20}
н/о н/о +2.3 +2.2 99 -6 -6 981.2 979.5 +0.3 +2.8
19 12.01 СЗ 12-14
{15}
н/о н/о +2.0 -4 -4 980.9 979.2
20 12.01 СЗ 11-14
{15}
н/о н/о +1.8 -4 -4 980.6 978.9
21 12.01 СЗ 11-14
{14}
н/о н/о +1.9 -4 -4 980.1 978.4
22 12.01 СЗ 10-12
{13}
н/о н/о +1.9 -4 -4 979.6 977.9
23 12.01 З 10-12
{12}
н/о н/о +1.6 -4 -4 978.6 976.9
00 13.01 З 9-11
{15}
н/о н/о +1.6 -4 -4 978.4 976.7
01 13.01 З 9-13
{13}
н/о н/о +1.7 -4 -4 977.7 976.0
02 13.01 З 7-9
{13}
н/о н/о +0.8 -4 -4 977.3 975.6
03 13.01 ЮЗ 6-9
{11}
н/о н/о +0.6 -4 -4 976.6 974.9
04 13.01 З 6-8
{9}
н/о н/о +0.9 -4 -4 975.9 974.2
05 13.01 ЮЗ 8-11
{11}
н/о н/о +0.4 -5 -5 975.4 973.7
06 13.01 Ю 4-6
{13}
н/о н/о +0.2 -4 -4 975.3 973.6 -0.3 +2.2
07 13.01 ЮЗ 6-8
{9}
н/о н/о +0.5 -4 -4 975.0 973.3
08 13.01 ЮЗ 6-7
{7}
н/о н/о +0.2 -5 -5 974.9 973.2
09 13.01 ЮЗ 5-6
{7}
н/о н/о +0.5 -4 -4 975.0 973.3
10 13.01 ЮЗ 3-5
{6}
н/о н/о +0.8 -2 -2 974.9 973.2
11 13.01 ЮЗ 5-8
{8}
н/о н/о 0.0 -4 -4 974.8 973.1
12 13.01 ЮЗ 6-8
{9}
н/о н/о -1.4 -7 -7 974.9 973.2
13 13.01 З 4-5
{8}
н/о н/о -1.7 -6 -6 975.0 973.3
14 13.01 З 4-6
{6}
н/о н/о -1.4 -5 -5 975.0 973.3
15 13.01 С 3-3
{5}
н/о н/о -1.1 -4 -4 975.1 973.4
16 13.01 С 3-4
{4}
н/о н/о -1.0 -4 -4 975.1 973.4
17 13.01 З 5-6
{6}
н/о н/о -1.5 -6 -6 975.1 973.4
18 13.01 З 2-3
{8}
н/о н/о -2.0 -4 -4 975.3 973.6 -2.1 +0.8
19 13.01 ЮЗ 2-3
{4}
н/о н/о -1.3 -3 -3 975.7 974.0
20 13.01 Ю 1-3
{4}
н/о н/о -1.0 -1 -1 976.0 974.3
21 13.01 Ю 3-4
{4}
н/о н/о -0.7 -4 -4 976.2 974.5
22 13.01 Ю 3-4
{6}
н/о н/о -0.7 -4 -4 976.9 975.2
23 13.01 ЮВ 2-3
{4}
н/о н/о -1.0 -3 -3 977.2 975.5
00 14.01 ЮВ 1-2
{6}
н/о н/о -1.0 -1 -1 977.6 975.9
01 14.01 Ю 2-2
{2}
н/о н/о -1.0 -3 -3 978.2 976.5
02 14.01 ЮВ 2-3
{3}
н/о н/о -1.0 -3 -3 978.8 977.1
03 14.01 ЮВ 3-3
{3}
н/о н/о -1.3 -5 -5 979.3 977.6
04 14.01 ЮВ 2-3
{3}
н/о н/о -1.2 -3 -3 979.8 978.1
05 14.01 ЮВ 3-4
{4}
н/о н/о -1.1 -4 -4 980.3 978.6
06 14.01 ЮВ 2-3
{4}
н/о н/о -1.1 -3 -3 981.0 979.3 -2.2 -0.6
07 14.01 ЮВ 2-2
{3}
н/о н/о -0.9 -3 -3 981.9 980.2
08 14.01 ЮВ 2-3
{3}
н/о н/о -1.1 -3 -3 982.8 981.1
09 14.01 ЮВ 3-4
{4}
н/о н/о -1.2 -4 -4 983.5 981.8
10 14.01 ЮВ 3-4
{4}
н/о н/о -1.3 -5 -5 984.2 982.4
11 14.01 ЮВ 1-2
{4}
н/о н/о -1.5 -2 -2 984.9 983.1
12 14.01 ЮВ 2-3
{4}
н/о н/о -1.1 -3 -3 985.4 983.6
13 14.01 ЮВ 2-3
{3}
н/о н/о -1.0 -3 -3 986.0 984.2
14 14.01 ЮВ 2-3
{3}
н/о н/о -1.0 -3 -3 986.0 984.2
15 14.01 Ю 2-2
{3}
н/о н/о -0.7 -3 -3 987.0 985.2
16 14.01 ЮВ 2-3
{3}
н/о н/о -0.8 -3 -3 987.6 985.8
17 14.01 ЮВ 2-3
{3}
н/о н/о -1.0 -3 -3 988.0 986.2
18 14.01 ЮВ 2-3
{4}
н/о н/о -0.9 -3 -3 988.4 986.6 -1.6 -0.6
19 14.01 ЮВ 3-3
{3}
н/о н/о -0.8 -4 -4 988.7 986.9
20 14.01 ЮВ 3-4
{4}
н/о н/о -0.8 -4 -4 989.2 987.4
21 14.01 ЮВ 4-4
{4}
н/о н/о -0.5 -4 -4 989.4 987.6
22 14.01 ЮВ 3-3
{4}
н/о н/о -0.1 -3 -3 989.8 988.0
23 14.01 ЮВ 3-3
{4}
н/о н/о -0.4 -3 -3 990.2 988.4
00 15.01 ЮВ 3-3
{4}
н/о н/о -0.6 -4 -4 990.1 988.3
01 15.01 СВ 4-7
{7}
н/о н/о -0.2 -4 -4 990.4 988.6
02 15.01 В 9-10
{10}
н/о н/о +0.1 -6 -6 990.2 988.4
04 15.01 ЮВ 3-4
{5}
н/о н/о -0.7 -4 -4 990.6 988.8
05 15.01 ЮВ 4-4
{5}
н/о н/о -0.7 -5 -5 990.5 988.7
06 15.01 ЮВ 3-4
{12}
н/о н/о -0.9 -4 -4 990.7 988.9 -1.0 +0.4
07 15.01 ЮВ 3-4
{4}
н/о н/о -1.0 -4 -4 990.9 989.1
08 15.01 ЮВ 3-3
{4}
н/о н/о -1.1 -4 -4 991.0 989.2
09 15.01 ЮВ 2-3
{4}
н/о н/о -0.7 -3 -3 991.4 989.6
10 15.01 СВ 3-4
{5}
н/о н/о -0.9 -4 -4 991.6 989.8
11 15.01 В 2-3
{5}
н/о н/о -1.0 -3 -3 991.6 989.8
12 15.01 СВ 6-8
{8}
н/о н/о -0.8 -6 -6 991.7 989.9
13 15.01 СВ 5-7
{9}
н/о н/о -1.5 -6 -6 991.8 990.0
14 15.01 В 3-4
{6}
н/о н/о -1.3 -5 -5 992.1 990.3
15 15.01 ЮВ 2-3
{5}
н/о н/о -1.2 -3 -3 992.3 990.5
16 15.01 ЮВ 2-2
{3}
н/о н/о -1.0 -3 -3 992.4 990.6
17 15.01 Ю 1-2
{3}
н/о н/о -0.6 -1 -1 992.5 990.7
18 15.01 Ю 5-6
{9}
н/о н/о -0.1 -5 -5 992.1 990.3 -1.7 -0.1
19 15.01 З 3-4
{7}
н/о н/о -1.0 -4 -4 992.6 990.8
20 15.01 ЮЗ 4-6
{6}
н/о н/о -0.7 -5 -5 992.6 990.8
21 15.01 ЮЗ 4-6
{6}
н/о н/о -0.6 -4 -4 992.8 991.0
22 15.01 ЮЗ 4-5
{7}
н/о н/о -0.2 -4 -4 992.9 991.1
23 15.01 ЮЗ 4-6
{6}
н/о н/о -0.5 -4 -4 993.1 991.3
00 16.01 ЮВ 3-4
{7}
н/о н/о -0.6 -4 -4 993.4 991.6
01 16.01 Ю 5-6
{6}
н/о н/о -0.5 -5 -5 993.4 991.6
02 16.01 Ю 2-3
{6}
н/о н/о -0.4 -2 -2 994.0 992.2

 

Местоположение метеостанции Маяк Fruholmen (Норвегия): широта 71.09 долгота 23.98 высота над уровнем моря 13 м.

В архиве по умолчанию представлена погода на Маяке Fruholmen за последнюю неделю. Архивные данные за месяц целиком и за предыдущие месяцы, начиная с января 2011 года, Вы можете получить, выбрав интересующий диапазон дат из раскрывающегося списка и нажав кнопку "Ввод!".


*Определитесь, кто Вы:
робот инопланетянин человек

Внимание! Время в таблицах - всемирное. Для получения местного времени необходимо прибавить поправку, которая равна 1 ч.

Смотрите также архив погоды в соседних городах и на ближайших метеорологических станциях:

Погода в Хаммерфест аэропорту (Норвегия) (51 км)
Погода в Хоннигсвог аэропорту (Норвегия) (73 км)
Погода на Хасвике (Норвегия) (78 км)
Погода в Рогнсундете (Норвегия) (87 км)
Погода в Хасвик аэропорту (Норвегия) (95 км)
Погода в Банаке (Норвегия) (120 км)
Погода в Альта аэропорту (Норвегия) (126 км)
Погода в Мехамн аэропорту (Норвегия) (139 км)
Погода на Маяке Slettnes (Норвегия) (153 км)
Погода в Суоловуопми-Лулит (Норвегия) (169 км)

Пояснения к столбцам:

Ветер - указаны скорость ветра в м/с - средняя за 10 мин, порывы в срок и между сроками (в фигурных скобках) и направление, откуда дует ветер: С - северный, СВ - северо-восточный, В - восточный, ЮВ - юго-восточный, Ю - южный, ЮЗ - юго-западный, З - западный, СЗ - северо-западный.
Видимость - горизонтальная дальность видимости в метрах или километрах. При видимости от 1 до 10 км при отсутствии осадков обычно наблюдается дымка, при ухудшении видимости до 1 км и менее - туман. В сухую погоду видимость может ухудшаться дымом, пылью или мглою.
Явления - указаны атмосферные явления, наблюдавшиеся в срок или в последний час перед сроком; фигурными скобками обозначены явления, наблюдавшиеся между сроками (за 1-3 часа до срока); квадратными скобками обозначены град или гололедные отложения с указанием их диаметра в мм.
Облачность - указаны через наклонную черту общая и нижняя облачность в баллах и высота нижней границы облаков в метрах; квадратными скобками обозначены формы облаков: Ci - перистые, Cs - перисто-слоистые, Cc - перисто-кучевые, Ac - высококучевые, As - высокослоистые, Sc - слоисто-кучевые, Ns - слоисто-дождевые, Cu - кучевые, Cb - кучево-дождевые. Подробнее классификацию облаков см. в Атласе облаков (PDF).
T - Температура воздуха - температура, измеренная на высоте 2 м над землей.
Td - Температура точки росы - температура, при понижении до которой содержащийся в воздухе водяной пар достигнет насыщения.
f - Относительная влажность воздуха - влажноcть воздуха, измеренная на высоте 2 м над землей.
Te - Эффективная температура - температура, которую ощущает одетый по сезону человек в тени. Характеристика душности погоды. При расчете учитывается влияние влажности воздуха и скорости ветра на теплоощущения человека.
Tes - Эффективная температура на солнце - температура, которую ощущает человек, с поправкой на солнечный нагрев. Характеристика знойности погоды. Зависит от высоты солнца над горизонтом, облачности и скорости ветра. Ночью, в пасмурную погоду, а также при ветре 12 м/с и более поправка равна нулю.
P - Атмосферное давление - приведенное к уровню моря атмосферное давление.
Po - Атмосферное давление - измеренное на уровне метеостанции атмосферное давление.
Tmin - Минимальная температура - минимум температуры воздуха на высоте 2 м над землей.
Tmax - Максимальная температура - максимум температуры воздуха на высоте 2 м над землей.
R - Количество осадков - Количество выпавших осадков за период времени, мм. При наведении курсора мыши на число - период времени, за который выпало указанное количество осадков.
R24 - Количество осадков - Количество выпавших осадков за 24 часа, мм.
S - Снежный покров - Высота снежного покрова, см. При наведении курсора мыши на число - состояние снежного покрова и степень покрытия местности в баллах.